TimeCST,TemperatureF,Dew PointF,Humidity,Sea Level PressureIn,VisibilityMPH,Wind Direction,Wind SpeedMPH,Gust SpeedMPH,PrecipitationIn,Events,Conditions,WindDirDegrees,DateUTC
12:52 AM,10.9,1.9,67,30.59,10.0,NW,10.4,-,N/A,,Clear,310,2013-12-07 06:52:00
1:52 AM,10.9,1.0,64,30.61,10.0,NW,9.2,-,N/A,,Clear,320,2013-12-07 07:52:00
2:52 AM,10.0,1.0,67,30.62,10.0,NW,9.2,-,N/A,,Clear,320,2013-12-07 08:52:00
3:52 AM,10.0,1.9,70,30.63,10.0,WNW,6.9,-,N/A,,Clear,300,2013-12-07 09:52:00
4:52 AM,9.0,1.9,73,30.64,10.0,WNW,6.9,-,N/A,,Clear,300,2013-12-07 10:52:00
5:52 AM,8.1,1.9,76,30.66,10.0,NW,9.2,-,N/A,,Clear,320,2013-12-07 11:52:00
6:52 AM,7.0,-0.0,73,30.68,10.0,NW,10.4,-,N/A,,Clear,320,2013-12-07 12:52:00
7:52 AM,8.1,-0.0,70,30.71,10.0,NW,8.1,-,N/A,,Clear,310,2013-12-07 13:52:00
8:52 AM,9.0,-0.9,64,30.72,10.0,NNW,8.1,-,N/A,,Clear,330,2013-12-07 14:52:00
9:52 AM,12.0,-0.0,59,30.74,10.0,NW,9.2,-,N/A,,Clear,310,2013-12-07 15:52:00
10:52 AM,14.0,1.0,56,30.73,10.0,NNW,6.9,-,N/A,,Clear,330,2013-12-07 16:52:00
11:52 AM,17.1,1.9,52,30.71,10.0,NNW,6.9,-,N/A,,Clear,330,2013-12-07 17:52:00
12:52 PM,19.0,1.9,47,30.69,10.0,NNW,5.8,-,N/A,,Clear,330,2013-12-07 18:52:00
1:52 PM,19.9,1.0,44,30.68,10.0,NNW,6.9,-,N/A,,Clear,330,2013-12-07 19:52:00
2:52 PM,19.9,1.9,46,30.66,10.0,NW,6.9,-,N/A,,Clear,310,2013-12-07 20:52:00
3:52 PM,19.0,1.9,47,30.67,10.0,NNW,5.8,-,N/A,,Clear,340,2013-12-07 21:52:00
4:52 PM,16.0,3.0,57,30.67,10.0,NNW,5.8,-,N/A,,Clear,330,2013-12-07 22:52:00
5:52 PM,15.1,3.9,61,30.67,10.0,NNW,3.5,-,N/A,,Clear,340,2013-12-07 23:52:00
6:52 PM,16.0,3.0,57,30.66,10.0,Calm,Calm,-,N/A,,Clear,0,2013-12-08 00:52:00
7:52 PM,14.0,3.9,64,30.66,10.0,Calm,Calm,-,N/A,,Clear,0,2013-12-08 01:52:00
8:52 PM,12.0,3.9,70,30.64,10.0,Calm,Calm,-,N/A,,Clear,0,2013-12-08 02:52:00
9:52 PM,12.9,5.0,71,30.63,10.0,North,3.5,-,N/A,,Clear,350,2013-12-08 03:52:00
10:52 PM,12.9,3.0,65,30.62,10.0,North,5.8,-,N/A,,Clear,350,2013-12-08 04:52:00
11:52 PM,14.0,3.9,64,30.63,10.0,NNW,6.9,-,N/A,,Clear,330,2013-12-08 05:52:00